Torna al catalogo

BREEZE-M R/B

AttivoHEO
NORAD 39128·ROCKET BODY·🇷🇺 Russia

Lanciato Apr 15, 2013 da Baikonur Cosmodrome

Loading…

Prossimi Passaggi (prossime 24 ore)

TLE

AggiornatoSource: Space-Track

Epoca: Sep 12, 2026, 23:36 UTC

1 39128U 13014B   26255.98390265 -.00000164  00000-0  00000-0 0  9996
2 39128  15.7751 355.5400 4803738 226.4656  82.0598  1.90429769 93299

Traccia BREEZE-M R/B in tempo reale con AllMySat

Download on the App Store